Weather Roundup
Issued by NWS

Home | Current Version | Previous Version | Text Only | Print | Product List | Glossary On
Versions: 1 2 3 4 5 6 7 8 9 10 11 12 13 14 15 16 17 18 19 20 21 22 23 24 25 26 27 28 29 30 31 32 33 34 35 36 37 38 39 40 41 42 43 44 45 46 47 48 49 50
963
NZUS93 KARX 280759
HRRWXR

CURRENT HOURLY OBSERVATIONS ACROSS
MUCH OF THE UPPER MISSISSIPPI VALLEY
NATIONAL WEATHER SERVICE LA CROSSE WI
300 AM CDT SAT MAY 28 2016


...SOUTHEAST MINNESOTA...


CITY           SKY/WX    TMP DP  RH WIND       PRES   REMARKS
ROCHESTER      CLOUDY    61  61 100 NW6       29.76F FOG
ROCHESTER/MAYO FAIR      62  62 100 CALM      29.76F
WINONA         CLOUDY    66  64  94 CALM      29.75R FOG
AUSTIN         LGT RAIN  63  61  94 CALM      29.75F
ALBERT LEA     CLOUDY    64  63  94 CALM      29.75F
DODGE CENTER   FOG       61  59  94 CALM      29.76F VSB 3/4
PRESTON        CLOUDY    62  61  96 CALM      29.75S
OWATONNA       CLOUDY    61  61 100 CALM      29.76S FOG
FARIBAULT      CLOUDY    61  61 100 CALM      29.76S
$$

...ELSEWHERE IN MINNESOTA...


CITY           SKY/WX    TMP DP  RH WIND       PRES   REMARKS
MINNEAPOLIS    CLOUDY    62  59  90 N3        29.74F
INTNL FALLS    CLOUDY    61  54  77 E5        29.83F
DULUTH         DRZL/FOG  52  51  97 E8        29.78S VSB 1
RED WING       FOG       63  61  94 CALM      29.74S VSB 1/2
REDWOOD FALLS  CLOUDY    60  57  89 N6        29.74F
MANKATO        CLOUDY    63  59  88 NE6       29.75F
WORTHINGTON    TSTM      64  60  87 S22       29.73F
FAIRMONT       CLOUDY    64  61  88 SE3       29.73F
$$

...SOUTHWEST WISCONSIN...


CITY           SKY/WX    TMP DP  RH WIND       PRES   REMARKS
LA CROSSE      CLOUDY    68  66  93 CALM      29.72F
PRAIRIE DU CHI RAIN      66  65  94 CALM      29.73R
BOSCOBEL       RAIN      67  66  97 NE3       29.74R FOG
LONE ROCK      CLOUDY    71  67  87 SE8       29.76R
PLATTEVILLE    CLOUDY    69  68  97 SE9       29.75S
FORT MC COY    CLOUDY    63  63 100 CALM      29.75S
CAMP DOUGLAS   MOCLDY    66 N/A N/A SE6       29.74S
MAUSTON-NEW LI PTSUNNY   66  66  99 CALM      29.75R FOG
VIROQUA        PTSUNNY   65  65 100 CALM      29.75S
WIS DELLS      CLOUDY    70  65  86 S7        29.77R
$$

...ELSEWHERE IN WISCONSIN...


CITY           SKY/WX    TMP DP  RH WIND       PRES   REMARKS
MILWAUKEE      CLOUDY    70  64  81 S12       29.84R
MADISON        CLOUDY    69  66  90 S15       29.79R
GREEN BAY      CLOUDY    67  65  93 S7        29.79F
EAU CLAIRE     FOG       63  62  97 W3        29.74S VSB 1/2
BLACK RVR FLS  FAIR      63  63 100 CALM      29.74S FOG
MEDFORD        CLOUDY    65  65 100 S5        29.77S
WAUSAU         CLOUDY    68  66  93 S6        29.76R
WIS RAPIDS     CLOUDY    67  64  90 CALM      29.77S
MARSHFIELD     CLOUDY    68  65  90 S7        29.76R FOG
RICE LAKE      FOG       59  57  94 CALM      29.77F VSB 1/4
$$

...NORTHEAST IOWA...


CITY           SKY/WX    TMP DP  RH WIND       PRES   REMARKS
WATERLOO       LGT RAIN  66  64  93 CALM      29.71F VSB 3/4
DUBUQUE        LGT RAIN  68  67  96 S16G22    29.73S
DECORAH        CLOUDY    66  66 100 SE3       29.74S FOG
MASON CITY     MOCLDY    62  62 100 N5        29.74F
CHARLES CITY   RAIN      64  64 100 NW5       29.74F
OELWEIN        MOCLDY    66  66 100 SW5       29.74S
$$

...ELSEWHERE IN IOWA...


CITY           SKY/WX    TMP DP  RH WIND       PRES   REMARKS
DES MOINES     CLOUDY    64  60  87 S6        29.72F
IOWA CITY      LGT RAIN  64  62  93 SE6       29.73F
FORT DODGE     CLOUDY    64  61  88 CALM      29.72F
MARSHALLTOWN   CLOUDY    66  65  96 S8        29.72S
CEDAR RAPIDS   LGT RAIN  64  64 100 CALM      29.70F
$$

...NORTHERN ILLINOIS...


CITY           SKY/WX    TMP DP  RH WIND       PRES   REMARKS
CHICAGO-OHARE  CLOUDY    68  65  90 S8        29.85F
CHICAGO-MIDWAY CLOUDY    70  64  81 S8        29.86F
MOLINE         CLOUDY    71  65  81 S14G21    29.74S
ROCKFORD       CLOUDY    70  65  84 S16       29.82F
PEORIA         CLOUDY    70  66  87 S16       29.80S
$$

NOTE: "FAIR" INDICATES FEW OR NO CLOUDS BELOW 12,000 FEET WITH NO
SIGNIFICANT WEATHER AND/OR OBSTRUCTIONS TO VISIBILITY. WIND
SPEEDS ARE IN MILES-PER-HOUR.




USA.gov is the U.S. government's official web portal to all federal, state and local government web resources and services.